Location: ?????
(37.7324°N, 23.9257°E)
Time: 22:29:42
(UTC+00:00)

Cosmos 1603 - Pass Details

Date: 29 November 2020
Orbit: 831 x 859 km, 71.0° (Epoch: 18 January)

Event Time Altitude Azimuth Distance (km) Brightness Sun altitude
Exits shadow 03:30:23 43° 274° (W) 1,169 3.9 -21.1°
Maximum altitude 03:31:03 45° 254° (WSW) 1,136 3.9 -20.9°
Drops below altitude 10° 03:36:22 10° 183° (S) 2,452 6.2 -19.9°
Sets 03:38:54 0° 177° (S) 3,387 7.0 -19.4°
